Location: Eastchurch
(51.4000°N, 0.8667°E)
Time: 04:02:45
(UTC+00:00)

NOSS 2-1 (C) - Visible Passes

Search period start: 21 April 2026 00:00
Search period end: 01 May 2026 00:00
Orbit: 374 x 1681 km, 63.3° (Epoch: 20 April)

Date Brightness Start Highest point End Pass type
(mag) Time Alt. Az. Time Alt. Az. Time Alt. Az.
21 Apr 4.0 20:11:43 10° WNW 20:14:54 42° SW 20:18:48 11° SSE visible
22 Apr 5.6 20:53:55 10° W 20:56:10 16° WSW 20:58:47 10° SSW visible
23 Apr 4.2 19:45:43 10° WNW 19:48:53 40° SW 19:52:55 10° SSE visible
24 Apr 5.8 20:28:00 10° W 20:30:08 15° WSW 20:32:33 10° SSW visible
26 Apr 6.0 20:02:03 10° W 20:04:02 14° WSW 20:06:17 10° SSW visible
